[[{"header":{"parameterUnit":"m.s-1","parameterCategory":1,"la1":30.2991,"la2":30.254,"lo1":-89.0895,"lo2":-89.0444,"dy":0.0017,"dx":0.0017,"nx":28,"ny":28,"refTime":"2025-07-30T21:00:00:Z","depth":0,"parameterNumber":2,"parameterNumberName":"U-component_of_WINDS"},"data":[0,0,0,0,0,0,0,0,0,0,0,0,0,0,0,0,0,0,0,0,0,0,0,0,0,0,0,0,0,0,0,0,0,0,0,0,0,0,0,0,0,0,0,0,0,0,0,0,0,0,0,0,0,0,0,0,0,0,2.3589,2.3592,0,2.3845,2.3848,2.3851,2.3942,2.3941,2.394,2.3939,2.4208,2.4216,2.4224,0,0,0,0,0,0,0,0,0,0,0,0,0,2.3183,2.319,2.3589,2.3592,2.3595,2.3845,2.3849,2.3852,2.3942,2.3941,2.394,2.3939,2.4206,2.4215,2.4225,0,0,0,0,0,0,0,0,0,0,0,0,0,2.3391,2.3192,2.3589,2.367,2.368,2.3844,2.3849,2.3853,2.3942,2.3941,2.3939,2.3938,2.4202,2.4214,2.4226,2.433,0,0,2.4263,2.4268,0,0,0,0,0,0,0,0,2.3379,2.3406,2.3655,2.3665,2.3676,2.386,2.3804,2.4013,2.3943,2.3843,2.3939,2.3937,2.4094,2.4115,2.4166,2.4342,2.4354,2.4264,2.4271,2.4277,2.428,0,0,0,0,0,0,0,2.3365,2.3396,2.3691,2.3659,2.3672,2.3696,2.3724,2.3844,2.3974,2.3852,2.3859,2.3887,2.41,2.4154,2.4173,2.4358,2.4264,2.4274,2.4282,2.4287,2.463,2.4632,0,0,0,0,0,0,2.3336,2.3383,2.3683,2.3698,2.3521,2.3704,2.3736,2.3803,2.3973,2.3997,2.3888,2.3891,2.4135,2.4159,2.4183,2.4315,2.4277,2.4288,2.4295,2.4628,2.463,2.4632,0,0,0,0,0,0,2.3327,2.3362,2.3672,2.3543,2.3584,2.3713,2.3787,2.3809,2.3863,2.4,2.4024,2.392,2.4134,2.4166,2.4292,2.4325,2.4293,2.4304,2.4626,2.4629,2.4631,2.4578,0,0,0,0,0,0,2.3315,2.3358,2.3398,2.3543,2.3591,2.3775,2.379,2.3815,2.3883,2.3889,2.4037,2.406,2.4136,2.4273,2.4304,2.4341,2.4314,2.4623,2.4627,2.463,2.4577,2.4579,2.458,0,0,0,0,0,2.33,2.3374,2.3399,2.3435,2.3643,2.3777,2.3804,2.3888,2.3886,2.3927,2.4015,2.4055,2.4316,2.4285,2.432,2.4362,2.4622,2.4626,2.463,2.4577,2.4578,2.458,0,0,0,0,0,0,2.3233,2.3395,2.3424,2.3547,2.3647,2.3792,2.3847,2.3887,2.3992,2.3993,2.4094,2.4127,2.4244,2.4316,2.4278,2.447,2.4471,2.4483,2.4419,2.4422,2.4423,2.4403,2.4324,0,0,0,0,0,2.3231,2.3325,2.3463,2.3558,2.3606,2.3717,2.3779,2.3834,2.3943,2.3986,2.4083,2.4189,2.4294,2.4362,2.4467,2.4588,2.4621,2.4634,2.4635,2.4635,2.4644,2.4712,2.4719,2.4646,2.4646,2.4646,0,0,2.3232,2.3332,2.3385,2.3547,2.3631,2.3726,2.3753,2.3853,2.3926,2.4003,2.4126,2.42,2.4325,2.4447,2.4507,2.4511,2.4671,2.4641,2.464,2.4649,2.4717,2.4724,2.473,2.4649,2.4648,2.4648,0,0,2.328,2.3365,2.3453,2.3535,2.3661,2.3734,2.3754,2.3893,2.3944,2.4069,2.4128,2.4216,2.4397,2.4482,2.4549,2.4627,2.4668,2.4658,2.4665,2.473,2.4735,2.4741,2.4768,2.4776,2.4666,2.4666,2.4666,0,2.3265,2.3409,2.3494,2.359,2.366,2.373,2.3821,2.3898,2.4052,2.4099,2.4101,2.4326,2.4415,2.4558,2.4577,2.4629,2.4656,2.4642,2.4727,2.4734,2.474,2.4767,2.4777,2.4664,2.4665,2.4665,2.4665,0,2.3384,2.3483,2.3539,2.3683,2.3759,2.3852,2.3952,2.4019,2.4067,2.4139,2.4265,2.4374,2.4501,2.4539,2.4589,2.4689,2.4688,2.4707,2.471,2.4744,2.4771,2.4782,2.4661,2.4662,2.4663,2.4663,0,0,2.3399,2.3585,2.3605,2.367,2.3812,2.3891,2.3988,2.4109,2.4164,2.4268,2.4351,2.45,2.4518,2.4594,2.4654,2.4711,2.4764,2.4724,2.4728,2.4727,2.488,2.4864,2.4875,2.4791,2.4794,2.4796,2.487,0,2.3465,2.3638,2.3715,2.3854,2.3946,2.4013,2.4097,2.4194,2.4264,2.4354,2.4433,2.4537,2.4553,2.4599,2.4658,2.4745,2.4796,2.4741,2.4871,2.4874,2.4837,2.4889,2.4874,2.4938,2.4881,2.4883,2.4884,0,2.3567,2.3666,2.3812,2.3942,2.3984,2.4057,2.4174,2.4259,2.437,2.4417,2.45,2.4556,2.4661,2.4655,2.4801,2.4761,2.4819,2.4869,2.4874,2.4889,2.4881,2.4906,2.4961,2.497,2.4902,2.49,2.4899,0,2.3561,2.3733,2.3842,2.3896,2.405,2.41,2.4166,2.4276,2.4343,2.4446,2.4491,2.4605,2.4668,2.4755,2.4841,2.483,2.4978,2.498,2.502,2.5018,2.5049,2.5046,2.5114,2.5086,2.5086,2.5086,2.5086,0,2.3627,2.3714,2.3841,2.3909,2.4008,2.4097,2.4193,2.4265,2.4361,2.4444,2.4511,2.4588,2.4696,2.4787,2.4855,2.4964,2.4993,2.5034,2.5051,2.5028,2.5023,2.5068,2.5066,2.5089,2.5088,2.5087,2.5087,0,2.3639,2.3728,2.3851,2.3985,2.4021,2.4088,2.4204,2.4272,2.4344,2.4448,2.4478,2.4592,2.4703,2.4796,2.4943,2.4988,2.5101,2.5122,2.5062,2.5071,2.5106,2.5101,2.5205,2.5223,2.5183,2.5183,2.5183,0,2.3675,2.3743,2.3883,2.3942,2.4007,2.4102,2.417,2.426,2.4329,2.4459,2.4511,2.4626,2.4722,2.4895,2.4992,2.5103,2.5127,2.5156,2.5145,2.5119,2.5127,2.5122,2.5129,2.5156,2.5156,2.5156,2.5156,0,2.373,2.3769,2.3864,2.3973,2.4052,2.4144,2.4237,2.4282,2.439,2.4463,2.4575,2.4649,2.4796,2.4909,2.5031,2.5101,2.5147,2.5159,2.5174,2.5151,2.5114,2.5134,2.5063,2.5156,2.5156,2.5156,2.5156,2.5156,2.3755,2.3817,2.3925,2.4028,2.4107,2.4192,2.4261,2.4341,2.4435,2.456,2.4608,2.4722,2.4831,2.4998,2.5069,2.516,2.5167,2.5189,2.5195,2.5198,2.5194,2.5098,2.5183,2.5183,2.5183,2.5183,2.5183,0,2.3812,2.3884,2.3977,2.4104,2.4185,2.4218,2.4322,2.4388,2.4487,2.4583,2.4675,2.4803,2.4912,2.5016,2.5131,2.5184,2.5207,2.5211,2.5208,2.5223,2.5182,2.5157,2.5189,2.5189,2.5189,2.5189,2.5189,2.5189,2.3851,2.3958,2.4011,2.4157,2.423,2.434,2.4396,2.4475,2.4552,2.4691,2.4781,2.4847,2.4947,2.5069,2.517,2.5198,2.5237,2.5235,2.5268,2.5228,2.5226,2.5224,2.5202,2.5242,2.5242,2.5302,2.5302,2.5302]},{"header":{"parameterUnit":"m.s-1","parameterCategory":1,"la1":30.2991,"la2":30.254,"lo1":-89.0895,"lo2":-89.0444,"dy":0.0017,"dx":0.0017,"nx":28,"ny":28,"refTime":"2025-07-30T21:00:00:Z","depth":0,"parameterNumber":3,"parameterNumberName":"V-component_of_WINDS"},"data":[0,0,0,0,0,0,0,0,0,0,0,0,0,0,0,0,0,0,0,0,0,0,0,0,0,0,0,0,0,0,0,0,0,0,0,0,0,0,0,0,0,0,0,0,0,0,0,0,0,0,0,0,0,0,0,0,0,0,1.6065,1.6068,0,1.6335,1.6339,1.6342,1.6381,1.6378,1.6376,1.6373,1.6661,1.6671,1.6681,0,0,0,0,0,0,0,0,0,0,0,0,0,1.559,1.5599,1.6065,1.6068,1.6072,1.6335,1.6339,1.6342,1.6381,1.6378,1.6375,1.6372,1.6658,1.667,1.6682,0,0,0,0,0,0,0,0,0,0,0,0,0,1.5822,1.5601,1.6064,1.6122,1.613,1.6334,1.6339,1.6343,1.6382,1.6378,1.6374,1.6371,1.6654,1.6669,1.6684,1.6852,0,0,1.673,1.6736,0,0,0,0,0,0,0,0,1.5809,1.584,1.6111,1.6119,1.6128,1.632,1.6277,1.6514,1.6383,1.6287,1.6373,1.6369,1.6552,1.6575,1.6634,1.6865,1.6878,1.6731,1.674,1.6746,1.6751,0,0,0,0,0,0,0,1.5793,1.5828,1.6172,1.6114,1.6125,1.6138,1.6166,1.6322,1.6438,1.6295,1.6298,1.6329,1.6556,1.662,1.6641,1.6882,1.673,1.6744,1.6753,1.6759,1.7263,1.7267,0,0,0,0,0,0,1.5765,1.5815,1.6164,1.618,1.5955,1.6149,1.6181,1.6263,1.6436,1.6458,1.6332,1.633,1.6596,1.6624,1.6652,1.686,1.6746,1.676,1.6769,1.7259,1.7264,1.7269,0,0,0,0,0,0,1.5754,1.5796,1.6153,1.5998,1.6045,1.6161,1.6252,1.627,1.6334,1.6464,1.6485,1.6376,1.6594,1.6631,1.6801,1.687,1.6767,1.6781,1.7254,1.726,1.7266,1.7277,0,0,0,0,0,0,1.5741,1.5792,1.5855,1.5999,1.6053,1.6295,1.6256,1.6278,1.6358,1.6358,1.651,1.6532,1.6594,1.6778,1.6816,1.6889,1.6793,1.7248,1.7257,1.7264,1.7272,1.7284,1.7294,0,0,0,0,0,1.5724,1.5851,1.5858,1.59,1.6134,1.6299,1.633,1.6395,1.6364,1.643,1.6512,1.6527,1.6855,1.6795,1.6838,1.6917,1.7244,1.7254,1.7264,1.7267,1.7281,1.7294,0,0,0,0,0,0,1.5717,1.5871,1.5881,1.6058,1.6164,1.6305,1.6391,1.6409,1.653,1.6526,1.6604,1.6638,1.6805,1.6878,1.6807,1.7088,1.7047,1.7066,1.7035,1.705,1.7061,1.7042,1.6805,0,0,0,0,0,1.5735,1.5853,1.5982,1.6126,1.6178,1.6274,1.6349,1.6389,1.6505,1.6551,1.6647,1.6761,1.6889,1.6973,1.7099,1.728,1.7315,1.7356,1.7367,1.7375,1.7392,1.7493,1.7513,1.7301,1.7301,1.7301,0,0,1.5776,1.5874,1.5945,1.6127,1.6214,1.6337,1.6313,1.6445,1.6537,1.6573,1.6738,1.6811,1.6944,1.712,1.7203,1.7186,1.7457,1.7388,1.7394,1.7406,1.7505,1.7525,1.7543,1.7308,1.7307,1.7305,0,0,1.5913,1.5998,1.6127,1.6213,1.6344,1.6406,1.6436,1.6574,1.6623,1.6789,1.6817,1.6929,1.7149,1.7242,1.7318,1.7484,1.7503,1.7523,1.7584,1.7681,1.7697,1.7713,1.7773,1.7794,1.7538,1.7538,1.7538,0,1.5949,1.6132,1.6192,1.6321,1.6401,1.6432,1.6564,1.6646,1.6812,1.6868,1.6845,1.7119,1.7211,1.7409,1.7448,1.7508,1.7547,1.7508,1.7689,1.7705,1.7721,1.7779,1.7802,1.754,1.754,1.754,1.7539,0,1.617,1.6296,1.6384,1.6539,1.6628,1.6758,1.6839,1.6922,1.6953,1.7018,1.7187,1.7296,1.7444,1.7493,1.7527,1.7696,1.7681,1.7673,1.7635,1.7741,1.7798,1.7821,1.7542,1.7542,1.7541,1.7541,0,0,1.6317,1.6497,1.6529,1.6599,1.6743,1.6843,1.6974,1.7113,1.7184,1.7296,1.7409,1.7592,1.7583,1.767,1.7713,1.7798,1.7923,1.778,1.7784,1.7804,1.8116,1.8124,1.8148,1.7933,1.7938,1.7942,1.8106,0,1.6472,1.6703,1.6758,1.6958,1.7075,1.7104,1.7218,1.732,1.7383,1.7494,1.7565,1.7693,1.7672,1.7724,1.7809,1.789,1.7987,1.7878,1.8043,1.8048,1.8012,1.8178,1.8187,1.8337,1.8128,1.8132,1.8135,0,1.6686,1.6798,1.7007,1.7132,1.7184,1.7285,1.7416,1.7521,1.7636,1.7676,1.7769,1.7803,1.7942,1.7891,1.8085,1.8009,1.8079,1.8129,1.8136,1.8158,1.8101,1.8206,1.8386,1.841,1.817,1.8167,1.8165,0,1.6774,1.6977,1.7128,1.7186,1.7336,1.7406,1.7472,1.7583,1.7663,1.7778,1.7831,1.7961,1.8034,1.8136,1.8204,1.8161,1.8392,1.8348,1.8432,1.843,1.8484,1.848,1.868,1.8523,1.8522,1.8522,1.8522,0,1.6944,1.7072,1.7169,1.7262,1.7405,1.7467,1.7609,1.7676,1.7773,1.7882,1.7915,1.8016,1.8099,1.8212,1.8267,1.8419,1.8451,1.8489,1.8503,1.8488,1.8484,1.8539,1.8531,1.8528,1.8527,1.8526,1.8525,0,1.7069,1.7138,1.7305,1.743,1.7465,1.7565,1.7674,1.7767,1.7827,1.7964,1.8,1.8098,1.8233,1.8309,1.848,1.8516,1.8686,1.8694,1.8647,1.8653,1.8733,1.8725,1.8979,1.9015,1.883,1.8832,1.8833,0,1.7174,1.7272,1.7406,1.7479,1.7545,1.7662,1.7742,1.7805,1.7888,1.8023,1.81,1.8235,1.8347,1.8561,1.8649,1.8779,1.8792,1.8871,1.8812,1.8794,1.8796,1.879,1.8801,1.8883,1.8885,1.8886,1.8887,0,1.7355,1.7383,1.7495,1.7618,1.771,1.7811,1.7912,1.797,1.8051,1.8142,1.8277,1.8363,1.8534,1.8669,1.8805,1.8876,1.8897,1.8903,1.893,1.8919,1.8888,1.8907,1.8677,1.8899,1.8898,1.8897,1.8896,1.8896,1.7476,1.7563,1.767,1.7793,1.7873,1.7965,1.8057,1.8127,1.824,1.8382,1.8413,1.8556,1.8666,1.8851,1.8924,1.9038,1.9025,1.9063,1.9073,1.9083,1.9086,1.8865,1.9063,1.9063,1.9063,1.9063,1.9062,0,1.7659,1.7728,1.7839,1.7976,1.8072,1.8076,1.8186,1.8268,1.8392,1.8491,1.8599,1.8754,1.8883,1.8978,1.9111,1.9184,1.9197,1.9217,1.9214,1.923,1.909,1.9055,1.9205,1.9204,1.9204,1.9204,1.9204,1.9204,1.7767,1.7915,1.7955,1.8143,1.8212,1.8349,1.8411,1.8497,1.8576,1.8746,1.8852,1.8911,1.901,1.9149,1.9268,1.9293,1.9341,1.9361,1.9387,1.9256,1.9241,1.9226,1.9193,1.937,1.937,1.9519,1.952,1.9521]}]]